"Pseudo-MPEC" for C2UCT92

Created 2020 May 23 20:07:04 UT using Find_Orb

Click here for an explanation of pseudo-MPECs

 
 Astrometry: 
     C2UCT92  C2020 05 21.37464 16 27 03.43 +07 13 59.2    ~5LBq 22.0 GVNEOCPG96
     C2UCT92  C2020 05 21.37989 16 27 02.94 +07 14 10.6    ~5LBq 21.6 GVNEOCPG96
     C2UCT92  C2020 05 21.38512 16 27 02.44 +07 14 20.9    ~5LBq 22.1 GVNEOCPG96
     C2UCT92  C2020 05 21V4L()Nn0Lm9e%\Uu[`@1\Oes7/:n?(A1IpvO=Astrometry5:CnQF52
     C2UCT92  C2020 05 219Iu0F,FO.fHFOredacted;=nnE5p19g-B^B](jhA9H#n#Jw16E1eF52
     C2UCT92  C2020 05 21b3bo^sbKZ+cVBkFd3_2)cZ,gWrW)v?c/[Ym.urh\DH'D2n]DxF$^F52
     C2UCT92  C2020 05 21g[Vx8:t1#^l6+2$B8:f;udMjGLBHP5f]4XwbiTFclick5kR5W01oF52
     C2UCT92  C2020 05 22.27089 16 25 36.74 +07 45 21.6    ~5M77 21.7 GVNEOCPV06
     C2UCT92  C2020 05 22.27406 16 25 36.41 +07 45 28.2    ~5M77 22.1 GVNEOCPV06
     C2UCT92  C2020 05 22.27722 16 25 36.09 +07 45 34.9    ~5M77 21.9 GVNEOCPV06
     C2UCT92  C2020 05 22.28039 16 25 35.76 +07 45 41.4    ~5M77 21.6 GVNEOCPV06
     C2UCT92 KC2020 05 22$QdS;8Cbde0nF4)hlZP54QJ%]96GJ`KUJ$pbYACOgw=Jhereed*p858
     C2UCT92 KC2020 05 22y?!$x^qi_vO0QyhD[vfXK-VCXu-bE`[F4^6#CfR-qQvsGt.D`gIn858
     C2UCT92 KC2020 05 22wlLrSh:JdX8#H;F4mT,x*Y$hx?/Gg,nm$G[v;_atQBld19r=lPF[858
     C2UCT92  C2020 05 23.24406 16 24 00.13 +08 19 33.4    ~5N6M 21.6 GVNEOCPV06
     C2UCT92  C2020 05 23.24973 16 23 59.57 +08 19 45.2    ~5N6M 21.3 GVNEOCPV06
     C2UCT92  C2020 05 23.25211 16 23 59.32 +08 19 50.7    ~5N6M 21.4 GVNEOCPV06
     C2UCT92  C2020 05 23.25450 16 23 59.07 +08 19 55.4    ~5N6M 21.2 GVNEOCPV06
     C2UCT92 !C2020 05 23DTMEAY9h8;#4V=O*nmM;2^T*Ufora_Fv$jP+6K?)9WxpEU3u9(Bf673
     C2UCT92 !C2020 05 23CT$Q93,MRvQw6g+Upxfon2$explanation(-=d)^a^lwPxQ#+M.(673

Station data:
(673) Table Mountain Observatory, Wrightwood  (N34.381488 W117.682170)
   US/California.  Observer W. M. Owen Jr. 0.61-m f/16 reflector + CCD.
(858) Tebbutt Observatory, Edgewood  (N35.093872 W106.220000)  US/New Mexico.
(F52) Pan-STARRS 2, Haleakala  (N20.707384 W156.255910)  US/Hawaii. 1.8-m
   Ritchey-Chrétien + CCD.
(G96) Mt. Lemmon Survey  (N32.442754 W110.788720)  US/Arizona.  Observers T.
   A. Pruyne, B. M. Africano, E. J. Christensen, G. A. Farneth, D. C. Fuls,
   A. R. Gibbs, A. D. Grauer, H. Gröller, J. A. Johnson, R. A. Kowalski, S.
   M. Larson, G. J. Leonard, D. Rankin, R. L. Seaman, F. C. Shelly. 1.5-m
   reflector + 10K CCD.
(V06) Catalina Sky Survey-Kuiper  (N32.416847 W110.732550)  US/Arizona.
   Observers T. A. Pruyne, B. M. Africano, E. J. Christensen, G. A. Farneth,
   D. C. Fuls, A. R. Gibbs, A. D. Grauer, H. Gröller, J. A. Johnson, R. A.
   Kowalski, S. M. Larson, G. J. Leonard, D. Rankin, R. L. Seaman, F. C.
   Shelly. 1.55-m reflector + CCD.

Orbital elements:  C2UCT92
   Perihelion 2020 Sep 29.489564 +/- 0.765 TT = 11:44:58 (JD 2459121.989564)
Epoch 2020 May 23.0 TT = JDT 2458992.5   Earth MOID: 0.1415   AutoNEOCP
M 328.29568798 +/- 2.1              (J2000 ecliptic)
n   0.24484067 +/- 0.0173           Peri.  141.16747 +/- 1.0
a   2.53054271 +/- 0.12             Node   223.05506 +/- 0.7
e   0.7003958 +/- 0.0136            Incl.   37.59020 +/- 1.3
P   4.03                   H 19.7   G  0.15   U 10.0  
q 0.75816107 +/- 0.0052    Q 4.30292435 +/- 0.253
From 20 observations 2020 May 21-23; mean residual 0".28
Residuals in arcseconds: 
200521 G96  .19-  .29-    200522 V06  .26+  .08-    200523 V06  .36-  .00     
200521 G96  .27+  .12+    200522 V06  .13+  .16-    200523 V06  .03+  .19-    
200521 G96  .55+  .53-    200522 V06  .13+  .11-    200523 V06  .03-  .27+    
200521 F52  .30-  .17+    200522 V06  .00   .29-    200523 V06  .07-  .08-    
200521 F52  .62-  .45+    200522 858  .75+  .41+    200523 673  .08-  .04-    
200521 F52  .23-  .10-    200522 858  .06-  .44+    200523 673  .07+  .01+    
200521 F52  .21-  .00     200522 858  .05+  .11+    

Ephemerides (geocentric):
Date (UTC) HH   RA              Dec         delta   r     elong  mag " sig PA
---- -- -- --  -------------   -----------  ------ ------ -----  --- ---- ---
2020 05 23 20  16 23 00.343   +08 40 22.99  .94717 1.8941 150.2 21.8 .091  61
2020 05 23 21  16 22 56.101   +08 41 51.15  .94686 1.8937 150.2 21.8 .109  58
2020 05 23 22  16 22 51.856   +08 43 19.32  .94654 1.8933 150.2 21.8 .127  55
2020 05 23 23  16 22 47.607   +08 44 47.50  .94623 1.8929 150.1 21.8 .147  53
2020 05 24 00  16 22 43.354   +08 46 15.69  .94592 1.8925 150.1 21.8 .167  51
2020 05 24 01  16 22 39.097   +08 47 43.89  .94561 1.8921 150.1 21.8 .187  50
2020 05 24 02  16 22 34.837   +08 49 12.10  .94530 1.8917 150.1 21.8 .209  49
2020 05 24 03  16 22 30.572   +08 50 40.32  .94498 1.8913 150.0 21.8 .231  48
2020 05 24 04  16 22 26.304   +08 52 08.55  .94467 1.8909 150.0 21.8 .254  47
2020 05 24 05  16 22 22.032   +08 53 36.78  .94436 1.8905 150.0 21.8 .277  47
2020 05 24 06  16 22 17.756   +08 55 05.03  .94406 1.8901 150.0 21.8 .301  46
2020 05 24 07  16 22 13.476   +08 56 33.28  .94375 1.8897 149.9 21.8 .325  45
2020 05 24 08  16 22 09.193   +08 58 01.54  .94344 1.8893 149.9 21.8 .351  45
2020 05 24 09  16 22 04.906   +08 59 29.81  .94313 1.8889 149.9 21.8 .376  44
2020 05 24 10  16 22 00.615   +09 00 58.09  .94282 1.8885 149.9 21.8 .403  44
2020 05 24 11  16 21 56.320   +09 02 26.38  .94252 1.8881 149.9 21.8 .430  44
2020 05 24 12  16 21 52.021   +09 03 54.67  .94221 1.8878 149.8 21.8 .457  43
2020 05 24 13  16 21 47.719   +09 05 22.97  .94191 1.8874 149.8 21.8 .486  43
2020 05 24 14  16 21 43.413   +09 06 51.28  .94160 1.8870 149.8 21.8 .514  43
2020 05 24 15  16 21 39.103   +09 08 19.59  .94130 1.8866 149.8 21.8 .544  43
2020 05 24 16  16 21 34.789   +09 09 47.92  .94099 1.8862 149.7 21.8 .574  42
2020 05 24 17  16 21 30.472   +09 11 16.25  .94069 1.8858 149.7 21.8 .605  42
2020 05 24 18  16 21 26.150   +09 12 44.58  .94039 1.8854 149.7 21.8 .636  42
2020 05 24 19  16 21 21.825   +09 14 12.93  .94009 1.8850 149.7 21.8 .668  42
2020 05 24 20  16 21 17.497   +09 15 41.28  .93979 1.8846 149.6 21.8 .700  41
2020 05 24 21  16 21 13.164   +09 17 09.63  .93948 1.8842 149.6 21.8 .733  41
2020 05 24 22  16 21 08.828   +09 18 38.00  .93918 1.8838 149.6 21.8 .767  41
2020 05 24 23  16 21 04.489   +09 20 06.37  .93888 1.8834 149.6 21.8 .801  41
2020 05 25 00  16 21 00.145   +09 21 34.74  .93859 1.8830 149.5 21.8 .836  41
2020 05 25 01  16 20 55.798   +09 23 03.12  .93829 1.8826 149.5 21.8 .871  41
2020 05 25 02  16 20 51.447   +09 24 31.51  .93799 1.8822 149.5 21.8 .907  40
2020 05 25 03  16 20 47.092   +09 25 59.90  .93769 1.8818 149.5 21.8 .944  40
2020 05 25 04  16 20 42.734   +09 27 28.30  .93739 1.8814 149.4 21.8 .981  40
2020 05 25 05  16 20 38.372   +09 28 56.70  .93710 1.8810 149.4 21.8 1.02  40
2020 05 25 06  16 20 34.007   +09 30 25.11  .93680 1.8807 149.4 21.8 1.06  40
2020 05 25 07  16 20 29.637   +09 31 53.52  .93651 1.8803 149.3 21.8 1.10  40
2020 05 25 08  16 20 25.264   +09 33 21.93  .93621 1.8799 149.3 21.8 1.14  40
2020 05 25 09  16 20 20.888   +09 34 50.36  .93592 1.8795 149.3 21.8 1.18  39
2020 05 25 10  16 20 16.508   +09 36 18.78  .93563 1.8791 149.3 21.8 1.22  39
2020 05 25 11  16 20 12.124   +09 37 47.21  .93533 1.8787 149.2 21.8 1.26  39
2020 05 25 12  16 20 07.736   +09 39 15.65  .93504 1.8783 149.2 21.8 1.30  39
2020 05 25 13  16 20 03.345   +09 40 44.08  .93475 1.8779 149.2 21.8 1.34  39
2020 05 25 14  16 19 58.950   +09 42 12.53  .93446 1.8775 149.2 21.8 1.39  39
2020 05 25 15  16 19 54.552   +09 43 40.97  .93417 1.8771 149.1 21.8 1.43  39
2020 05 25 16  16 19 50.150   +09 45 09.42  .93388 1.8767 149.1 21.8 1.48  39
2020 05 25 17  16 19 45.745   +09 46 37.87  .93359 1.8763 149.1 21.8 1.52  38
2020 05 25 18  16 19 41.336   +09 48 06.33  .93330 1.8759 149.0 21.8 1.57  38
2020 05 25 19  16 19 36.923   +09 49 34.79  .93301 1.8755 149.0 21.8 1.61  38